Location: Newark
(50.4348°N, 30.5552°E)
Time: 04:59:22
(UTC+00:00)

Altair - Pass Details

Date: 26 January 2020
Orbit: 1502 x 1682 km, 47.2° (Epoch: 19 February)

Event Time Altitude Azimuth Distance (km) Brightness Sun altitude
Rises 07:26:18 0° 241° (WSW) 4,888 10.0 11.9°
Reaches altitude 10° 07:29:27 10° 239° (WSW) 3,917 9.6 12.2°
Maximum altitude 07:39:23 64° 161° (SSE) 1,826 8.6 13.2°
Drops below altitude 10° 07:49:21 10° 83° (E) 3,935 10.1 14.1°
Sets 07:52:31 0° 81° (E) 4,912 10.5 14.4°
